Location: アルンシュタイン
(50.0000°N, 10.0000°E)
Time: 06:29:09
(UTC+01:00)

Envisat - Pass Details

Date: 28 October 2021
Orbit: 764 x 766 km, 98.2° (Epoch: 04 December)

Event Time Altitude Azimuth Distance (km) Brightness Sun altitude
Rises 05:28:00 0° 24° (NNE) 3,245 6.7 -25.4°
Reaches altitude 10° 05:30:45 10° 38° (NE) 2,313 6.1 -24.9°
Maximum altitude 05:34:51 24° 92° (E) 1,551 5.3 -24.3°
Drops below altitude 10° 05:38:55 10° 145° (SE) 2,298 5.8 -23.6°
Sets 05:41:38 0° 159° (SSE) 3,218 6.4 -23.2°
